Погода в Старотомникове

Россия / Тамбовская область     53°43′37″N   41°53′50″E
темп.,
°C
ветер,
м/с
пор.,
м/с
влажн.,
%
обл.,
%
осадки,
мм/ч
давл.,
гПа
погр.,
м
29 июля, чт
чт2900:00+17ю1190100 0.0 101316
03:00+17юв2394100 0.7 101274
06:00+17юв3895100 1.4 1010218
09:00+23юз476530 1.4 1009770
12:00+28зюз5846100 0.0 10072224
15:00+26зсз485452 0.1 10071150
18:00+27зсз594851 0.0 10061518
21:00+22з2266100 0.0 100624
30 июля, пт
пт3000:00+19зюз117998 0.0 100711
03:00+18зюз2283100 0.0 100722
06:00+20ююз237498 0.0 1007102
09:00+26ююз344951 0.0 1007568
12:00+30з4539100 0.0 10062124
15:00+20в359237 4.3 1006159
18:00+21ю3592100 3.5 1006269
21:00+20ссз11860 1.7 100615
31 июля, сб
сб3100:00+19ююз229222 0.1 100721
03:00+18зюз24950 0.1 100768
06:00+18з26820 0.0 1008172
09:00+25з464516 0.0 10081195
12:00+28зсз57295 0.0 10082472
15:00+29з582824 0.0 10083046
18:00+27з483724 0.0 10081062
21:00+22зюз225040 0.0 100925
1 августа, вс
вс100:00+19сз12635 0.0 101011
03:00+17зюз126387 0.0 101114
06:00+18зюз1264100 0.0 101238
09:00+25юз2440100 0.0 1012691
12:00+30юз352922 0.0 10111922
15:00+32юз47308 0.0 10102946
18:00+30ююз3734100 0.0 1009501
21:00+25ююз394595 0.0 1010198
2 августа, пн
пн200:00+21ссз24579 0.0 101174
03:00+20юв2267100 0.0 101018
06:00+19ю238347 0.7 101155
09:00+26ю23555 1.6 1010397
12:00+32ю35332 0.0 10081830
15:00+35юз572312 0.0 10063651
18:00+23юв4669100 0.8 1007100
21:00+24ю4155954 0.8 1006490